Location: Caltech
(34.1382°N, 118.1253°W)
Time: 17:27:20
(UTC-08:00)

JAS-2 - Visible Passes

Search period start: 25 November 2014 00:00
Search period end: 05 December 2014 00:00
Orbit: 801 x 1321 km, 98.5° (Epoch: 24 November)

Date Brightness Start Highest point End Pass type
(mag) Time Alt. Az. Time Alt. Az. Time Alt. Az.
25 Nov 11.3 04:23:42 10° NNE 04:29:51 34° E 04:35:19 10° SSE visible
25 Nov 12.7 18:00:52 10° SW 18:06:06 20° W 18:11:31 10° NW visible
26 Nov 9.7 05:13:12 10° NNE 05:20:12 87° ESE 05:26:17 10° SSW visible
26 Nov 11.1 17:03:25 10° S 17:10:41 52° W 17:18:20 10° NNW visible
27 Nov 11.4 04:19:03 10° NE 04:24:55 31° E 04:30:09 10° SSE visible
27 Nov 10.2 06:03:45 10° N 06:09:58 37° WNW 06:15:31 10° SW visible
27 Nov 12.6 17:55:42 10° SW 18:01:14 22° W 18:06:58 10° NW visible
28 Nov 9.7 05:08:27 10° NNE 05:15:18 81° ESE 05:21:17 10° S visible
28 Nov 11.0 16:58:29 10° S 17:05:53 56° W 17:13:36 10° NNW visible
29 Nov 11.5 04:14:25 10° NE 04:19:58 28° E 04:24:58 10° SSE visible
29 Nov 10.0 05:58:56 10° N 06:05:08 39° WNW 06:10:39 10° SW visible
29 Nov 12.5 17:50:34 10° SW 17:56:23 24° W 18:02:23 10° NW visible
30 Nov 9.7 05:03:42 10° NNE 05:10:24 76° ESE 05:16:15 10° S visible
01 Dec 11.6 04:09:48 10° NE 04:15:01 25° E 04:19:44 10° SSE visible
01 Dec 9.9 05:54:06 10° N 06:00:16 42° WNW 06:05:45 10° SW visible
01 Dec 12.4 17:45:29 10° SW 17:51:33 25° W 17:57:46 10° NW visible
02 Dec 9.8 04:58:56 10° NNE 05:05:29 70° E 05:11:13 10° S visible
03 Dec 11.7 04:05:12 10° NE 04:10:03 23° E 04:14:29 10° SE visible
03 Dec 9.8 05:49:16 10° N 05:55:24 44° WNW 06:00:51 10° SW visible
03 Dec 12.3 17:40:25 10° SSW 17:46:43 27° W 17:53:07 10° NW visible
04 Dec 9.9 04:54:10 10° NNE 05:00:34 64° E 05:06:10 10° S visible
